Time,TemperatureF,DewpointF,PressureIn,WindDirection,WindDirectionDegrees,WindSpeedMPH,WindSpeedGustMPH,Humidity,HourlyPrecipIn,Conditions,Clouds,dailyrainin,SoftwareType,DateUTC
2013-06-11 00:00:00,81.3,77.1,30.09,ESE,115,3.0,6.0,87,0.00,,,0.00,Wunderground v.1.15,2013-06-11 04:00:00,
2013-06-11 00:10:00,81.3,77.1,30.09,ESE,114,4.0,4.0,87,0.00,,,0.00,Wunderground v.1.15,2013-06-11 04:10:00,
2013-06-11 00:20:00,81.3,76.7,30.09,ESE,122,4.0,4.0,86,0.00,,,0.00,Wunderground v.1.15,2013-06-11 04:20:00,
2013-06-11 00:30:00,81.3,76.7,30.09,NE,43,4.0,4.0,86,0.00,,,0.00,Wunderground v.1.15,2013-06-11 04:30:00,
2013-06-11 00:40:00,81.3,77.1,30.09,South,177,3.0,4.0,87,0.00,,,0.00,Wunderground v.1.15,2013-06-11 04:40:00,
2013-06-11 00:50:00,81.3,76.7,30.09,SE,141,4.0,6.0,86,0.00,,,0.00,Wunderground v.1.15,2013-06-11 04:50:00,
2013-06-11 01:00:00,81.4,76.8,30.08,SE,132,4.0,4.0,86,0.00,,,0.00,Wunderground v.1.15,2013-06-11 05:00:00,
2013-06-11 01:10:00,81.3,77.1,30.08,East,101,4.0,4.0,87,0.00,,,0.00,Wunderground v.1.15,2013-06-11 05:10:00,
2013-06-11 01:20:00,81.2,77.0,30.08,ESE,105,4.0,6.0,87,0.00,,,0.00,Wunderground v.1.15,2013-06-11 05:20:00,
2013-06-11 01:30:00,81.2,77.0,30.08,ENE,72,4.0,4.0,87,0.00,,,0.00,Wunderground v.1.15,2013-06-11 05:30:00,
2013-06-11 01:40:00,81.3,77.1,30.07,ESE,112,4.0,6.0,87,0.00,,,0.00,Wunderground v.1.15,2013-06-11 05:40:00,
2013-06-11 01:50:00,81.2,77.0,30.07,ESE,106,5.0,5.0,87,0.00,,,0.00,Wunderground v.1.15,2013-06-11 05:50:00,
2013-06-11 02:00:00,81.2,77.0,30.06,ESE,108,5.0,5.0,87,0.00,,,0.00,Wunderground v.1.15,2013-06-11 06:00:00,
2013-06-11 02:10:00,81.1,77.2,30.06,ESE,118,5.0,5.0,88,0.00,,,0.00,Wunderground v.1.15,2013-06-11 06:10:00,
2013-06-11 02:20:00,81.1,77.2,30.05,SE,124,5.0,5.0,88,0.00,,,0.00,Wunderground v.1.15,2013-06-11 06:20:00,
2013-06-11 02:30:00,81.0,77.1,30.05,ESE,118,3.0,4.0,88,0.00,,,0.00,Wunderground v.1.15,2013-06-11 06:30:00,
2013-06-11 02:40:00,81.0,77.1,30.04,ESE,105,4.0,9.0,88,0.00,,,0.00,Wunderground v.1.15,2013-06-11 06:40:00,
2013-06-11 02:50:00,80.9,77.4,30.04,SE,134,4.0,4.0,89,0.00,,,0.00,Wunderground v.1.15,2013-06-11 06:50:00,
2013-06-11 03:00:00,80.8,76.6,30.03,ESE,114,5.0,5.0,87,0.00,,,0.00,Wunderground v.1.15,2013-06-11 07:00:00,
2013-06-11 03:10:00,80.9,76.7,30.03,ESE,110,4.0,4.0,87,0.00,,,0.00,Wunderground v.1.15,2013-06-11 07:10:00,
2013-06-11 03:20:00,80.9,77.4,30.03,SE,132,4.0,7.0,89,0.00,,,0.00,Wunderground v.1.15,2013-06-11 07:20:00,
2013-06-11 03:30:00,80.9,77.4,30.04,East,92,3.0,5.0,89,0.00,,,0.00,Wunderground v.1.15,2013-06-11 07:30:00,
2013-06-11 03:40:00,80.9,77.4,30.03,South,174,5.0,5.0,89,0.00,,,0.00,Wunderground v.1.15,2013-06-11 07:40:00,
2013-06-11 03:50:00,81.0,77.4,30.03,ESE,112,5.0,9.0,89,0.00,,,0.00,Wunderground v.1.15,2013-06-11 07:50:00,
2013-06-11 04:00:00,80.8,76.6,30.03,SE,132,5.0,5.0,87,0.00,,,0.00,Wunderground v.1.15,2013-06-11 08:00:00,
2013-06-11 04:10:00,80.7,76.5,30.03,South,174,3.0,5.0,87,0.00,,,0.00,Wunderground v.1.15,2013-06-11 08:10:00,
2013-06-11 04:20:00,80.6,76.7,30.03,SSE,166,4.0,4.0,88,0.00,,,0.00,Wunderground v.1.15,2013-06-11 08:20:00,
2013-06-11 04:30:00,80.5,76.6,30.03,SSW,204,5.0,6.0,88,0.00,,,0.00,Wunderground v.1.15,2013-06-11 08:30:00,
2013-06-11 04:40:00,80.5,77.0,30.03,SE,136,5.0,5.0,89,0.00,,,0.00,Wunderground v.1.15,2013-06-11 08:40:00,
2013-06-11 04:50:00,80.4,77.2,30.03,SSW,211,4.0,4.0,90,0.00,,,0.00,Wunderground v.1.15,2013-06-11 08:50:00,
2013-06-11 05:00:00,80.3,77.1,30.03,South,184,3.0,3.0,90,0.00,,,0.00,Wunderground v.1.15,2013-06-11 09:00:00,
2013-06-11 05:10:00,80.4,77.5,30.03,ESE,111,4.0,6.0,91,0.00,,,0.00,Wunderground v.1.15,2013-06-11 09:10:00,
2013-06-11 05:20:00,80.4,77.5,30.03,SSE,155,3.0,3.0,91,0.00,,,0.00,Wunderground v.1.15,2013-06-11 09:20:00,
2013-06-11 05:30:00,80.4,77.5,30.04,ESE,121,3.0,3.0,91,0.00,,,0.00,Wunderground v.1.15,2013-06-11 09:30:00,
2013-06-11 05:40:00,80.4,77.5,30.04,ESE,117,3.0,5.0,91,0.00,,,0.00,Wunderground v.1.15,2013-06-11 09:40:00,
2013-06-11 05:50:00,80.4,77.2,30.04,SE,131,3.0,3.0,90,0.00,,,0.00,Wunderground v.1.15,2013-06-11 09:50:00,
2013-06-11 06:00:00,80.3,77.4,30.04,ENE,77,3.0,3.0,91,0.28,,,0.04,Wunderground v.1.15,2013-06-11 10:00:00,
2013-06-11 06:10:00,79.9,77.4,30.04,SE,127,2.0,2.0,92,0.05,,,0.04,Wunderground v.1.15,2013-06-11 10:10:00,
2013-06-11 06:20:00,79.5,77.3,30.05,SSE,152,2.0,2.0,93,0.00,,,0.04,Wunderground v.1.15,2013-06-11 10:20:00,
2013-06-11 06:30:00,79.3,77.4,30.05,South,190,1.0,1.0,94,0.00,,,0.04,Wunderground v.1.15,2013-06-11 10:30:00,
2013-06-11 06:40:00,79.3,77.4,30.05,SW,232,1.0,2.0,94,0.00,,,0.04,Wunderground v.1.15,2013-06-11 10:40:00,
2013-06-11 06:50:00,79.3,77.4,30.05,SE,141,2.0,2.0,94,0.00,,,0.04,Wunderground v.1.15,2013-06-11 10:50:00,
2013-06-11 07:00:00,79.5,77.6,30.05,SE,132,2.0,2.0,94,0.00,,,0.04,Wunderground v.1.15,2013-06-11 11:00:00,
2013-06-11 07:10:00,79.7,77.8,30.05,SSW,211,1.0,1.0,94,0.00,,,0.04,Wunderground v.1.15,2013-06-11 11:10:00,
2013-06-11 07:20:00,80.3,78.1,30.06,SSE,149,2.0,2.0,93,0.00,,,0.04,Wunderground v.1.15,2013-06-11 11:20:00,
2013-06-11 07:30:00,80.6,77.7,30.06,SSE,150,2.0,4.0,91,0.00,,,0.04,Wunderground v.1.15,2013-06-11 11:30:00,
2013-06-11 07:40:00,81.2,78.3,30.06,East,94,2.0,2.0,91,0.00,,,0.04,Wunderground v.1.15,2013-06-11 11:40:00,
2013-06-11 07:50:00,81.7,78.1,30.07,SSE,149,3.0,3.0,89,0.00,,,0.04,Wunderground v.1.15,2013-06-11 11:50:00,
2013-06-11 08:00:00,82.1,78.2,30.07,South,172,4.0,4.0,88,0.00,,,0.04,Wunderground v.1.15,2013-06-11 12:00:00,
2013-06-11 08:10:00,82.7,78.4,30.07,SSE,159,3.0,3.0,87,0.00,,,0.04,Wunderground v.1.15,2013-06-11 12:10:00,
2013-06-11 08:20:00,81.9,76.9,30.07,ESE,117,4.0,4.0,85,0.00,,,0.04,Wunderground v.1.15,2013-06-11 12:20:00,
2013-06-11 08:30:00,81.6,77.0,30.08,NW,317,4.0,4.0,86,0.00,,,0.04,Wunderground v.1.15,2013-06-11 12:30:00,
2013-06-11 08:40:00,81.3,76.7,30.08,SE,136,4.0,4.0,86,0.00,,,0.04,Wunderground v.1.15,2013-06-11 12:40:00,
2013-06-11 08:50:00,82.1,77.5,30.08,ESE,116,4.0,4.0,86,0.00,,,0.04,Wunderground v.1.15,2013-06-11 12:50:00,
2013-06-11 09:00:00,83.5,77.4,30.08,SSW,197,4.0,5.0,82,0.00,,,0.04,Wunderground v.1.15,2013-06-11 13:00:00,
2013-06-11 09:10:00,84.1,77.6,30.08,SSE,166,5.0,5.0,81,0.00,,,0.04,Wunderground v.1.15,2013-06-11 13:10:00,
2013-06-11 09:20:00,83.5,78.2,30.08,SE,127,4.0,4.0,84,0.00,,,0.04,Wunderground v.1.15,2013-06-11 13:20:00,
2013-06-11 09:30:00,83.6,77.9,30.08,South,181,3.0,4.0,83,0.00,,,0.04,Wunderground v.1.15,2013-06-11 13:30:00,
2013-06-11 09:40:00,83.8,78.1,30.08,ESE,115,5.0,5.0,83,0.00,,,0.04,Wunderground v.1.15,2013-06-11 13:40:00,
2013-06-11 09:50:00,83.2,77.5,30.08,SSE,164,5.0,5.0,83,0.00,,,0.04,Wunderground v.1.15,2013-06-11 13:50:00,
2013-06-11 10:00:00,81.3,75.6,30.09,SSW,193,6.0,6.0,83,0.00,,,0.05,Wunderground v.1.15,2013-06-11 14:00:00,
2013-06-11 10:10:00,78.2,74.4,30.09,SE,134,5.0,5.0,88,0.34,,,0.13,Wunderground v.1.15,2013-06-11 14:10:00,
2013-06-11 10:20:00,78.7,76.2,30.09,SW,225,3.0,7.0,92,0.09,,,0.14,Wunderground v.1.15,2013-06-11 14:20:00,
2013-06-11 10:30:00,78.9,76.0,30.10,South,186,4.0,7.0,91,0.19,,,0.18,Wunderground v.1.15,2013-06-11 14:30:00,
2013-06-11 10:40:00,79.0,76.1,30.10,SSE,153,5.0,5.0,91,0.08,,,0.19,Wunderground v.1.15,2013-06-11 14:40:00,
2013-06-11 10:50:00,79.0,75.8,30.09,South,174,4.0,4.0,90,0.04,,,0.20,Wunderground v.1.15,2013-06-11 14:50:00,
2013-06-11 11:00:00,78.7,75.5,30.10,South,174,3.0,6.0,90,0.04,,,0.20,Wunderground v.1.15,2013-06-11 15:00:00,
2013-06-11 11:10:00,78.2,75.0,30.11,SW,221,4.0,4.0,90,0.00,,,0.20,Wunderground v.1.15,2013-06-11 15:10:00,
2013-06-11 11:20:00,78.3,74.8,30.11,SSE,163,3.0,3.0,89,0.00,,,0.20,Wunderground v.1.15,2013-06-11 15:20:00,
2013-06-11 11:30:00,78.3,74.5,30.11,SSW,194,3.0,3.0,88,0.00,,,0.20,Wunderground v.1.15,2013-06-11 15:30:00,
2013-06-11 11:40:00,78.2,74.0,30.11,SSW,203,2.0,2.0,87,0.00,,,0.20,Wunderground v.1.15,2013-06-11 15:40:00,
2013-06-11 11:50:00,78.3,74.1,30.10,WSW,254,1.0,1.0,87,0.00,,,0.20,Wunderground v.1.15,2013-06-11 15:50:00,
2013-06-11 12:00:00,78.7,74.8,30.09,WNW,288,0.0,0.0,88,0.00,,,0.20,Wunderground v.1.15,2013-06-11 16:00:00,
2013-06-11 12:10:00,79.0,74.5,30.08,WNW,288,0.0,0.0,86,0.00,,,0.20,Wunderground v.1.15,2013-06-11 16:10:00,
2013-06-11 12:20:00,79.5,74.6,30.08,NE,39,0.0,0.0,85,0.00,,,0.20,Wunderground v.1.15,2013-06-11 16:20:00,
2013-06-11 12:30:00,80.8,75.2,30.08,NNW,342,1.0,1.0,83,0.00,,,0.20,Wunderground v.1.15,2013-06-11 16:30:00,
2013-06-11 12:40:00,81.8,75.8,30.08,SSE,160,2.0,2.0,82,0.00,,,0.20,Wunderground v.1.15,2013-06-11 16:40:00,
2013-06-11 12:50:00,82.8,76.0,30.08,South,191,1.0,2.0,80,0.00,,,0.20,Wunderground v.1.15,2013-06-11 16:50:00,
2013-06-11 13:00:00,82.8,76.7,30.08,SSW,195,4.0,4.0,82,0.00,,,0.20,Wunderground v.1.15,2013-06-11 17:00:00,
2013-06-11 13:10:00,83.1,75.5,30.08,SSW,208,4.0,4.0,78,0.00,,,0.20,Wunderground v.1.15,2013-06-11 17:10:00,
2013-06-11 13:20:00,83.3,75.3,30.08,SSE,150,4.0,4.0,77,0.00,,,0.20,Wunderground v.1.15,2013-06-11 17:20:00,
2013-06-11 13:30:00,83.8,75.4,30.08,SSE,163,5.0,7.0,76,0.00,,,0.20,Wunderground v.1.15,2013-06-11 17:30:00,
2013-06-11 13:40:00,84.7,74.3,30.08,SE,139,5.0,6.0,71,0.00,,,0.20,Wunderground v.1.15,2013-06-11 17:40:00,
2013-06-11 13:50:00,85.0,75.0,30.08,SE,129,5.0,5.0,72,0.00,,,0.20,Wunderground v.1.15,2013-06-11 17:50:00,
2013-06-11 14:00:00,85.3,75.2,30.07,SSE,160,5.0,5.0,72,0.00,,,0.20,Wunderground v.1.15,2013-06-11 18:00:00,
2013-06-11 14:10:00,85.9,75.4,30.07,SSW,204,6.0,9.0,71,0.00,,,0.20,Wunderground v.1.15,2013-06-11 18:10:00,
2013-06-11 14:20:00,86.3,74.9,30.06,South,184,6.0,6.0,69,0.00,,,0.20,Wunderground v.1.15,2013-06-11 18:20:00,
2013-06-11 14:30:00,86.7,74.9,30.06,SSE,162,6.0,6.0,68,0.00,,,0.20,Wunderground v.1.15,2013-06-11 18:30:00,
2013-06-11 14:40:00,86.6,75.2,30.06,SSW,197,6.0,6.0,69,0.00,,,0.20,Wunderground v.1.15,2013-06-11 18:40:00,
2013-06-11 14:50:00,86.5,75.1,30.06,SE,127,7.0,7.0,69,0.00,,,0.20,Wunderground v.1.15,2013-06-11 18:50:00,
2013-06-11 15:00:00,86.5,74.7,30.05,South,172,6.0,8.0,68,0.00,,,0.20,Wunderground v.1.15,2013-06-11 19:00:00,
2013-06-11 15:10:00,86.5,75.5,30.06,SE,134,5.0,5.0,70,0.00,,,0.20,Wunderground v.1.15,2013-06-11 19:10:00,
2013-06-11 15:20:00,86.1,75.6,30.05,ESE,108,5.0,6.0,71,0.00,,,0.20,Wunderground v.1.15,2013-06-11 19:20:00,
2013-06-11 15:30:00,85.8,75.7,30.06,ESE,103,5.0,5.0,72,0.00,,,0.20,Wunderground v.1.15,2013-06-11 19:30:00,
2013-06-11 15:40:00,86.2,76.5,30.06,South,188,3.0,3.0,73,0.00,,,0.20,Wunderground v.1.15,2013-06-11 19:40:00,
2013-06-11 15:50:00,86.0,76.3,30.05,SSE,160,3.0,8.0,73,0.00,,,0.20,Wunderground v.1.15,2013-06-11 19:50:00,
2013-06-11 16:00:00,85.2,76.0,30.05,SSW,195,4.0,4.0,74,0.00,,,0.20,Wunderground v.1.15,2013-06-11 20:00:00,
2013-06-11 16:10:00,84.1,75.7,30.05,SE,127,4.0,4.0,76,0.00,,,0.20,Wunderground v.1.15,2013-06-11 20:10:00,
2013-06-11 16:20:00,83.7,75.7,30.04,ESE,112,3.0,4.0,77,0.00,,,0.20,Wunderground v.1.15,2013-06-11 20:20:00,
2013-06-11 16:30:00,83.1,75.5,30.03,East,101,4.0,4.0,78,0.00,,,0.20,Wunderground v.1.15,2013-06-11 20:30:00,
2013-06-11 16:40:00,83.0,76.2,30.03,ESE,118,4.0,4.0,80,0.00,,,0.20,Wunderground v.1.15,2013-06-11 20:40:00,
2013-06-11 16:50:00,82.9,76.5,30.03,SSW,197,3.0,3.0,81,0.00,,,0.20,Wunderground v.1.15,2013-06-11 20:50:00,
2013-06-11 17:00:00,82.9,76.5,30.03,ESE,122,3.0,3.0,81,0.00,,,0.20,Wunderground v.1.15,2013-06-11 21:00:00,
2013-06-11 17:10:00,82.6,76.5,30.03,ESE,108,4.0,5.0,82,0.00,,,0.20,Wunderground v.1.15,2013-06-11 21:10:00,
2013-06-11 17:20:00,83.0,77.3,30.03,ENE,72,3.0,7.0,83,0.00,,,0.20,Wunderground v.1.15,2013-06-11 21:20:00,
2013-06-11 17:30:00,82.9,77.2,30.03,SE,135,4.0,4.0,83,0.00,,,0.20,Wunderground v.1.15,2013-06-11 21:30:00,
2013-06-11 17:40:00,82.9,77.2,30.02,South,179,4.0,4.0,83,0.00,,,0.20,Wunderground v.1.15,2013-06-11 21:40:00,
2013-06-11 17:50:00,83.5,77.8,30.03,SE,130,2.0,2.0,83,0.00,,,0.20,Wunderground v.1.15,2013-06-11 21:50:00,
2013-06-11 18:00:00,83.1,77.4,30.03,SE,129,3.0,3.0,83,0.00,,,0.20,Wunderground v.1.15,2013-06-11 22:00:00,
2013-06-11 18:10:00,83.1,77.4,30.04,ESE,120,3.0,3.0,83,0.00,,,0.20,Wunderground v.1.15,2013-06-11 22:10:00,
2013-06-11 18:20:00,83.0,77.3,30.05,East,79,2.0,3.0,83,0.00,,,0.20,Wunderground v.1.15,2013-06-11 22:20:00,
2013-06-11 18:30:00,82.6,77.3,30.05,East,94,2.0,2.0,84,0.00,,,0.20,Wunderground v.1.15,2013-06-11 22:30:00,
2013-06-11 18:40:00,82.3,77.3,30.05,ENE,63,3.0,3.0,85,0.00,,,0.20,Wunderground v.1.15,2013-06-11 22:40:00,
2013-06-11 18:50:00,82.1,77.1,30.05,ESE,102,2.0,2.0,85,0.00,,,0.20,Wunderground v.1.15,2013-06-11 22:50:00,
2013-06-11 19:00:00,82.0,77.0,30.05,SE,130,2.0,2.0,85,0.00,,,0.20,Wunderground v.1.15,2013-06-11 23:00:00,
2013-06-11 19:10:00,81.8,76.8,30.06,ENE,77,2.0,2.0,85,0.00,,,0.20,Wunderground v.1.15,2013-06-11 23:10:00,
2013-06-11 19:20:00,81.8,77.2,30.06,East,81,2.0,2.0,86,0.00,,,0.20,Wunderground v.1.15,2013-06-11 23:20:00,
2013-06-11 19:30:00,81.7,77.1,30.06,ENE,57,2.0,4.0,86,0.00,,,0.20,Wunderground v.1.15,2013-06-11 23:30:00,
2013-06-11 19:40:00,81.7,77.5,30.06,ENE,73,2.0,3.0,87,0.00,,,0.20,Wunderground v.1.15,2013-06-11 23:40:00,
2013-06-11 19:50:00,81.6,77.4,30.06,NE,53,3.0,3.0,87,0.00,,,0.20,Wunderground v.1.15,2013-06-11 23:50:00,
2013-06-11 20:00:00,81.6,77.4,30.06,East,83,2.0,2.0,87,0.00,,,0.20,Wunderground v.1.15,2013-06-12 00:00:00,
2013-06-11 20:10:00,81.6,77.7,30.06,ESE,103,2.0,2.0,88,0.00,,,0.20,Wunderground v.1.15,2013-06-12 00:10:00,
2013-06-11 20:20:00,81.5,77.6,30.05,ESE,104,2.0,3.0,88,0.00,,,0.20,Wunderground v.1.15,2013-06-12 00:20:00,
2013-06-11 20:30:00,81.4,77.2,30.05,ESE,102,3.0,3.0,87,0.00,,,0.20,Wunderground v.1.15,2013-06-12 00:30:00,
2013-06-11 20:40:00,81.4,77.2,30.05,East,82,3.0,4.0,87,0.00,,,0.20,Wunderground v.1.15,2013-06-12 00:40:00,
2013-06-11 20:50:00,81.4,77.5,30.05,ENE,60,3.0,3.0,88,0.00,,,0.20,Wunderground v.1.15,2013-06-12 00:50:00,
2013-06-11 21:00:00,81.3,77.1,30.05,East,81,4.0,6.0,87,0.00,,,0.20,Wunderground v.1.15,2013-06-12 01:00:00,
2013-06-11 21:10:00,81.2,77.0,30.04,ESE,117,4.0,4.0,87,0.00,,,0.20,Wunderground v.1.15,2013-06-12 01:10:00,
2013-06-11 21:20:00,81.2,77.0,30.05,East,90,3.0,4.0,87,0.00,,,0.20,Wunderground v.1.15,2013-06-12 01:20:00,
2013-06-11 21:30:00,81.2,75.9,30.05,East,101,4.0,5.0,84,0.00,,,0.20,Wunderground v.1.15,2013-06-12 01:30:00,
2013-06-11 21:40:00,81.3,76.7,30.05,ESE,108,4.0,6.0,86,0.00,,,0.20,Wunderground v.1.15,2013-06-12 01:40:00,
2013-06-11 21:50:00,80.9,75.6,30.05,ESE,118,4.0,5.0,84,0.00,,,0.20,Wunderground v.1.15,2013-06-12 01:50:00,
2013-06-11 22:00:00,80.5,75.2,30.05,ESE,117,3.0,8.0,84,0.00,,,0.20,Wunderground v.1.15,2013-06-12 02:00:00,
2013-06-11 22:10:00,80.4,74.4,30.04,SSW,195,3.0,3.0,82,0.00,,,0.20,Wunderground v.1.15,2013-06-12 02:10:00,
2013-06-11 22:20:00,80.6,75.3,30.04,SE,134,3.0,3.0,84,0.00,,,0.20,Wunderground v.1.15,2013-06-12 02:20:00,
2013-06-11 22:30:00,80.6,75.0,30.04,SE,130,3.0,6.0,83,0.00,,,0.20,Wunderground v.1.15,2013-06-12 02:30:00,
2013-06-11 22:40:00,80.9,76.7,30.04,SSW,198,4.0,6.0,87,0.00,,,0.20,Wunderground v.1.15,2013-06-12 02:40:00,
2013-06-11 22:50:00,80.8,77.3,30.04,SSE,155,4.0,4.0,89,0.00,,,0.20,Wunderground v.1.15,2013-06-12 02:50:00,
2013-06-11 23:00:00,80.8,77.3,30.05,South,191,3.0,5.0,89,0.00,,,0.20,Wunderground v.1.15,2013-06-12 03:00:00,
2013-06-11 23:10:00,80.9,77.4,30.04,SSW,193,4.0,4.0,89,0.00,,,0.20,Wunderground v.1.15,2013-06-12 03:10:00,
2013-06-11 23:20:00,81.0,77.1,30.05,SE,141,4.0,6.0,88,0.00,,,0.20,Wunderground v.1.15,2013-06-12 03:20:00,
2013-06-11 23:30:00,81.0,77.1,30.05,SSE,149,4.0,4.0,88,0.00,,,0.20,Wunderground v.1.15,2013-06-12 03:30:00,
2013-06-11 23:40:00,80.9,77.0,30.05,SSE,149,2.0,3.0,88,0.00,,,0.20,Wunderground v.1.15,2013-06-12 03:40:00,
2013-06-11 23:50:00,80.9,77.0,30.05,ESE,111,3.0,3.0,88,0.00,,,0.20,Wunderground v.1.15,2013-06-12 03:50:00,